| time (UTC) | temp F | wind direction | speed MPH | gust MPH | rain 1hr in | rain 24hr in | rain mn in | humidity % | barometer mb |
| 20260509182549 | 59 | 46 | 0.0 | 3.0 | 0.00 | 0.00 | 0.00 | 68 | 1018.4 |
| 20260509182048 | 59 | 47 | 1.0 | 3.0 | 0.00 | 0.00 | 0.00 | 69 | 1018.6 |
| 20260509181546 | 58 | 33 | 0.0 | 2.0 | 0.00 | 0.00 | 0.00 | 70 | 1018.7 |
| 20260509181020 | 58 | 63 | 0.0 | 3.0 | 0.00 | 0.00 | 0.00 | 70 | 1018.7 |
| 20260509180519 | 58 | 61 | 0.0 | 3.0 | 0.00 | 0.00 | 0.00 | 70 | 1018.8 |
| 20260509180020 | 58 | 62 | 0.0 | 3.0 | 0.00 | 0.00 | 0.00 | 70 | 1018.7 |
| 20260509175518 | 58 | 62 | 0.0 | 3.0 | 0.00 | 0.00 | 0.00 | 71 | 1018.7 |
| 20260509175017 | 57 | 132 | 0.0 | 3.0 | 0.00 | 0.00 | 0.00 | 70 | 1018.6 |
| 20260509174516 | 57 | 123 | 0.0 | 2.0 | 0.00 | 0.00 | 0.00 | 71 | 1018.6 |
| 20260509174020 | 57 | 123 | 0.0 | 3.0 | 0.00 | 0.00 | 0.00 | 73 | 1018.6 |
| 20260509173514 | 57 | 123 | 0.0 | 3.0 | 0.00 | 0.00 | 0.00 | 71 | 1018.7 |
| 20260509173014 | 57 | 101 | 0.0 | 2.0 | 0.00 | 0.00 | 0.00 | 72 | 1018.6 |
| 20260509172514 | 57 | 106 | 0.0 | 2.0 | 0.00 | 0.00 | 0.00 | 71 | 1018.7 |
| 20260509172014 | 57 | 106 | 0.0 | 3.0 | 0.00 | 0.00 | 0.00 | 72 | 1018.7 |
| 20260509171511 | 56 | 106 | 0.0 | 3.0 | 0.00 | 0.00 | 0.00 | 73 | 1018.7 |
| 20260509171010 | 56 | 154 | 0.0 | 3.0 | 0.00 | 0.00 | 0.00 | 73 | 1018.9 |
| 20260509170509 | 56 | 190 | 1.0 | 3.0 | 0.00 | 0.00 | 0.00 | 72 | 1018.9 |
| 20260509170010 | 56 | 175 | 1.0 | 3.0 | 0.00 | 0.00 | 0.00 | 72 | 1019.0 |
| 20260509165509 | 56 | 175 | 0.0 | 3.0 | 0.00 | 0.00 | 0.00 | 73 | 1018.9 |
| 20260509165008 | 55 | 174 | 0.0 | 3.0 | 0.00 | 0.00 | 0.00 | 74 | 1019.0 |
| 20260509164506 | 55 | 171 | 1.0 | 3.0 | 0.00 | 0.00 | 0.00 | 73 | 1019.0 |
| 20260509164006 | 55 | 196 | 1.0 | 3.0 | 0.00 | 0.00 | 0.00 | 73 | 1019.1 |
| 20260509163510 | 55 | 197 | 1.0 | 3.0 | 0.00 | 0.00 | 0.00 | 73 | 1019.1 |
| 20260509163008 | 55 | 185 | 1.0 | 3.0 | 0.00 | 0.00 | 0.00 | 73 | 1019.1 |
| 20260509162505 | 55 | 244 | 0.0 | 3.0 | 0.00 | 0.00 | 0.00 | 74 | 1019.1 |
| 20260509162004 | 55 | 200 | 1.0 | 3.0 | 0.00 | 0.00 | 0.00 | 74 | 1019.2 |
| 20260509161503 | 55 | 254 | 1.0 | 3.0 | 0.00 | 0.00 | 0.00 | 74 | 1019.3 |
| 20260509161102 | 55 | 269 | 0.0 | 2.0 | 0.00 | 0.00 | 0.00 | 74 | 1019.3 |
| 20260509160559 | 54 | 267 | 0.0 | 2.0 | 0.00 | 0.00 | 0.00 | 75 | 1019.3 |
| 20260509160158 | 54 | 19 | 1.0 | 2.0 | 0.00 | 0.00 | 0.00 | 75 | 1019.4 |
| 20260509155558 | 54 | 17 | 0.0 | 3.0 | 0.00 | 0.00 | 0.00 | 76 | 1019.5 |
| 20260509155056 | 53 | 17 | 1.0 | 3.0 | 0.00 | 0.00 | 0.00 | 77 | 1019.5 |
| 20260509154554 | 53 | 19 | 0.0 | 0.0 | 0.00 | 0.00 | 0.00 | 78 | 1019.6 |
| 20260509154052 | 53 | 20 | 0.0 | 0.0 | 0.00 | 0.00 | 0.00 | 79 | 1019.6 |
| 20260509153551 | 53 | 20 | 0.0 | 0.0 | 0.00 | 0.00 | 0.00 | 79 | 1019.5 |
| 20260509153051 | 52 | 20 | 0.0 | 0.0 | 0.00 | 0.00 | 0.00 | 80 | 1019.5 |
| 20260509152552 | 52 | 20 | 0.0 | 0.0 | 0.00 | 0.00 | 0.00 | 80 | 1019.6 |
| 20260509152049 | 52 | 7 | 0.0 | 0.0 | 0.00 | 0.00 | 0.00 | 81 | 1019.5 |
| 20260509151548 | 52 | 7 | 0.0 | 0.0 | 0.00 | 0.00 | 0.00 | 81 | 1019.5 |
| 20260509151047 | 52 | 7 | 0.0 | 2.0 | 0.00 | 0.00 | 0.00 | 81 | 1019.6 |
| 20260509150547 | 52 | 7 | 0.0 | 2.0 | 0.00 | 0.00 | 0.00 | 81 | 1019.6 |
| 20260509150047 | 52 | 7 | 0.0 | 1.0 | 0.00 | 0.00 | 0.00 | 81 | 1019.6 |
| 20260509145545 | 51 | 7 | 0.0 | 3.0 | 0.00 | 0.00 | 0.00 | 81 | 1019.6 |
| 20260509145044 | 51 | 7 | 0.0 | 3.0 | 0.00 | 0.00 | 0.00 | 81 | 1019.6 |
| 20260509144544 | 51 | 238 | 0.0 | 2.0 | 0.00 | 0.00 | 0.00 | 81 | 1019.7 |
| 20260509144044 | 51 | 243 | 0.0 | 2.0 | 0.00 | 0.00 | 0.00 | 81 | 1019.5 |
| 20260509143544 | 51 | 243 | 0.0 | 3.0 | 0.00 | 0.00 | 0.00 | 81 | 1019.5 |
| 20260509143044 | 51 | 236 | 0.0 | 4.0 | 0.00 | 0.00 | 0.00 | 82 | 1019.6 |
| 20260509142544 | 51 | 273 | 1.0 | 4.0 | 0.00 | 0.00 | 0.00 | 82 | 1019.6 |
| 20260509142043 | 51 | 31 | 0.0 | 2.0 | 0.00 | 0.00 | 0.00 | 82 | 1019.5 |
| 20260509141543 | 50 | 257 | 0.0 | 2.0 | 0.00 | 0.00 | 0.00 | 82 | 1019.5 |
| 20260509141043 | 50 | 258 | 0.0 | 2.0 | 0.00 | 0.00 | 0.00 | 82 | 1019.5 |
| 20260509140542 | 50 | 258 | 0.0 | 3.0 | 0.00 | 0.00 | 0.00 | 82 | 1019.5 |
| 20260509140143 | 50 | 256 | 0.0 | 4.0 | 0.00 | 0.00 | 0.00 | 82 | 1019.6 |
| 20260509135540 | 50 | 259 | 1.0 | 4.0 | 0.00 | 0.00 | 0.00 | 82 | 1019.6 |
| 20260509135040 | 50 | 238 | 0.0 | 2.0 | 0.00 | 0.00 | 0.00 | 82 | 1019.6 |
| 20260509134542 | 50 | 237 | 0.0 | 2.0 | 0.00 | 0.00 | 0.00 | 82 | 1019.6 |
| 20260509134040 | 50 | 237 | 0.0 | 2.0 | 0.00 | 0.00 | 0.00 | 82 | 1019.6 |
| 20260509133538 | 50 | 238 | 0.0 | 2.0 | 0.00 | 0.00 | 0.00 | 82 | 1019.6 |
| 20260509133036 | 50 | 238 | 0.0 | 2.0 | 0.00 | 0.00 | 0.00 | 82 | 1019.7 |
| 20260509132539 | 50 | 238 | 0.0 | 2.0 | 0.00 | 0.00 | 0.00 | 82 | 1019.7 |
| 20260509132035 | 49 | 238 | 0.0 | 4.0 | 0.00 | 0.00 | 0.00 | 82 | 1019.7 |
| 20260509131534 | 49 | 238 | 0.0 | 5.0 | 0.00 | 0.00 | 0.00 | 82 | 1019.7 |
| 20260509131033 | 49 | 207 | 2.0 | 5.0 | 0.00 | 0.00 | 0.00 | 83 | 1019.7 |
| 20260509130533 | 49 | 204 | 1.0 | 3.0 | 0.00 | 0.00 | 0.00 | 83 | 1019.6 |
| 20260509130050 | 49 | 232 | 0.0 | 7.0 | 0.00 | 0.00 | 0.00 | 83 | 1019.6 |
| 20260509125533 | 49 | 232 | 0.0 | 7.0 | 0.00 | 0.00 | 0.00 | 83 | 1019.5 |
| 20260509125032 | 49 | 254 | 1.0 | 3.0 | 0.00 | 0.00 | 0.00 | 83 | 1019.5 |
| 20260509124538 | 49 | 173 | 0.0 | 2.0 | 0.00 | 0.00 | 0.00 | 83 | 1019.5 |
| 20260509124032 | 49 | 343 | 0.0 | 2.0 | 0.00 | 0.00 | 0.00 | 83 | 1019.6 |
| 20260509123532 | 49 | 343 | 0.0 | 2.0 | 0.00 | 0.00 | 0.00 | 83 | 1019.5 |
| 20260509123032 | 49 | 343 | 0.0 | 2.0 | 0.00 | 0.00 | 0.00 | 83 | 1019.5 |
| 20260509122531 | 49 | 343 | 0.0 | 2.0 | 0.00 | 0.00 | 0.00 | 83 | 1019.5 |
| 20260509122031 | 49 | 343 | 0.0 | 1.0 | 0.00 | 0.00 | 0.00 | 83 | 1019.6 |
| 20260509121530 | 49 | 343 | 0.0 | 2.0 | 0.00 | 0.00 | 0.00 | 83 | 1019.6 |
| 20260509121030 | 49 | 343 | 0.0 | 2.0 | 0.00 | 0.00 | 0.00 | 83 | 1019.6 |
| 20260509120529 | 49 | 343 | 0.0 | 2.0 | 0.00 | 0.00 | 0.00 | 83 | 1019.7 |
| 20260509120033 | 49 | 9 | 0.0 | 2.0 | 0.00 | 0.00 | 0.00 | 83 | 1019.7 |
| 20260509115528 | 49 | 9 | 0.0 | 3.0 | 0.00 | 0.00 | 0.00 | 83 | 1019.7 |
| 20260509115031 | 49 | 9 | 0.0 | 3.0 | 0.00 | 0.00 | 0.00 | 83 | 1019.6 |
| 20260509114529 | 49 | 27 | 0.0 | 2.0 | 0.00 | 0.00 | 0.00 | 83 | 1019.7 |
| 20260509114029 | 49 | 36 | 0.0 | 2.0 | 0.00 | 0.00 | 0.00 | 84 | 1019.7 |
| 20260509113529 | 49 | 36 | 0.0 | 2.0 | 0.00 | 0.00 | 0.00 | 83 | 1019.7 |
| 20260509113029 | 49 | 36 | 0.0 | 2.0 | 0.00 | 0.00 | 0.00 | 83 | 1019.7 |
| 20260509112528 | 49 | 36 | 0.0 | 1.0 | 0.00 | 0.00 | 0.00 | 83 | 1019.7 |
| 20260509112028 | 49 | 36 | 0.0 | 0.0 | 0.00 | 0.00 | 0.00 | 83 | 1019.7 |
| 20260509111527 | 49 | 37 | 0.0 | 1.0 | 0.00 | 0.00 | 0.00 | 83 | 1019.7 |
| 20260509111027 | 49 | 37 | 0.0 | 2.0 | 0.00 | 0.00 | 0.00 | 83 | 1019.7 |
| 20260509110527 | 49 | 281 | 0.0 | 5.0 | 0.00 | 0.00 | 0.00 | 83 | 1019.7 |
| 20260509110026 | 48 | 275 | 2.0 | 5.0 | 0.00 | 0.00 | 0.00 | 84 | 1019.6 |
| 20260509105527 | 48 | 238 | 0.0 | 5.0 | 0.00 | 0.00 | 0.00 | 84 | 1019.6 |
| 20260509105027 | 48 | 248 | 2.0 | 5.0 | 0.00 | 0.00 | 0.00 | 85 | 1019.5 |
| 20260509104525 | 48 | 357 | 0.0 | 5.0 | 0.00 | 0.00 | 0.00 | 85 | 1019.5 |
| 20260509104024 | 48 | 357 | 1.0 | 5.0 | 0.00 | 0.00 | 0.00 | 85 | 1019.5 |
| 20260509103524 | 48 | 332 | 0.0 | 2.0 | 0.00 | 0.00 | 0.00 | 85 | 1019.5 |
| 20260509103024 | 48 | 333 | 0.0 | 2.0 | 0.00 | 0.00 | 0.00 | 85 | 1019.5 |
| 20260509102524 | 48 | 329 | 0.0 | 2.0 | 0.00 | 0.00 | 0.00 | 85 | 1019.5 |
| 20260509102024 | 48 | 329 | 0.0 | 3.0 | 0.00 | 0.00 | 0.00 | 85 | 1019.5 |
| 20260509101528 | 48 | 323 | 0.0 | 3.0 | 0.00 | 0.00 | 0.00 | 85 | 1019.4 |
| 20260509101022 | 48 | 255 | 0.0 | 5.0 | 0.00 | 0.00 | 0.00 | 85 | 1019.4 |
| 20260509100522 | 48 | 256 | 1.0 | 5.0 | 0.00 | 0.00 | 0.00 | 84 | 1019.5 |
| 20260509100024 | 47 | 308 | 1.0 | 3.0 | 0.00 | 0.00 | 0.00 | 84 | 1019.4 |
| 20260509095522 | 47 | 308 | 0.0 | 5.0 | 0.00 | 0.00 | 0.00 | 84 | 1019.4 |
| 20260509095021 | 47 | 304 | 1.0 | 5.0 | 0.00 | 0.00 | 0.00 | 84 | 1019.3 |
| 20260509094520 | 47 | 336 | 0.0 | 2.0 | 0.00 | 0.00 | 0.00 | 83 | 1019.5 |
| 20260509094020 | 47 | 336 | 0.0 | 2.0 | 0.00 | 0.00 | 0.00 | 83 | 1019.4 |
| 20260509093520 | 47 | 336 | 0.0 | 2.0 | 0.00 | 0.00 | 0.00 | 83 | 1019.3 |
| 20260509093020 | 48 | 336 | 0.0 | 2.0 | 0.00 | 0.00 | 0.00 | 82 | 1019.3 |
| 20260509092521 | 48 | 336 | 0.0 | 2.0 | 0.00 | 0.00 | 0.00 | 82 | 1019.3 |
| 20260509092021 | 48 | 22 | 0.0 | 2.0 | 0.00 | 0.00 | 0.00 | 82 | 1019.3 |
| 20260509091517 | 48 | 23 | 0.0 | 2.0 | 0.00 | 0.00 | 0.00 | 82 | 1019.3 |
| 20260509091017 | 48 | 23 | 0.0 | 2.0 | 0.00 | 0.00 | 0.00 | 82 | 1019.3 |
| 20260509090518 | 48 | 23 | 0.0 | 2.0 | 0.00 | 0.00 | 0.00 | 82 | 1019.3 |
| 20260509090016 | 48 | 23 | 0.0 | 2.0 | 0.00 | 0.00 | 0.00 | 81 | 1019.3 |
| 20260509085514 | 48 | 342 | 0.0 | 2.0 | 0.00 | 0.00 | 0.00 | 81 | 1019.3 |
| 20260509085013 | 48 | 343 | 0.0 | 2.0 | 0.00 | 0.00 | 0.00 | 81 | 1019.3 |
| 20260509084525 | 48 | 343 | 1.0 | 2.0 | 0.00 | 0.00 | 0.00 | 80 | 1019.3 |
| 20260509084018 | 49 | 343 | 0.0 | 2.0 | 0.00 | 0.00 | 0.00 | 80 | 1019.3 |
| 20260509083511 | 49 | 343 | 0.0 | 3.0 | 0.00 | 0.00 | 0.00 | 80 | 1019.4 |
| 20260509083021 | 49 | 342 | 0.0 | 3.0 | 0.00 | 0.00 | 0.00 | 80 | 1019.5 |
| 20260509082511 | 49 | 101 | 0.0 | 2.0 | 0.00 | 0.00 | 0.00 | 79 | 1019.4 |
| 20260509082010 | 49 | 117 | 0.0 | 0.0 | 0.00 | 0.00 | 0.00 | 79 | 1019.4 |
| 20260509081513 | 49 | 117 | 0.0 | 0.0 | 0.00 | 0.00 | 0.00 | 79 | 1019.3 |
| 20260509081008 | 50 | 117 | 0.0 | 0.0 | 0.00 | 0.00 | 0.00 | 79 | 1019.4 |
| 20260509080508 | 50 | 117 | 0.0 | 0.0 | 0.00 | 0.00 | 0.00 | 79 | 1019.4 |
| 20260509080007 | 50 | 117 | 0.0 | 0.0 | 0.00 | 0.00 | 0.00 | 79 | 1019.4 |
| 20260509075506 | 50 | 117 | 0.0 | 0.0 | 0.00 | 0.00 | 0.00 | 79 | 1019.3 |
| 20260509075005 | 50 | 117 | 0.0 | 0.0 | 0.00 | 0.00 | 0.00 | 79 | 1019.4 |
| 20260509074509 | 51 | 117 | 0.0 | 0.0 | 0.00 | 0.00 | 0.00 | 79 | 1019.3 |
| 20260509074003 | 51 | 117 | 0.0 | 0.0 | 0.00 | 0.00 | 0.00 | 79 | 1019.3 |
| 20260509073503 | 51 | 117 | 0.0 | 0.0 | 0.00 | 0.00 | 0.00 | 79 | 1019.3 |
| 20260509073004 | 51 | 117 | 0.0 | 0.0 | 0.00 | 0.00 | 0.00 | 79 | 1019.3 |
| 20260509072502 | 51 | 117 | 0.0 | 2.0 | 0.00 | 0.00 | 0.00 | 79 | 1019.4 |
| 20260509072000 | 51 | 117 | 0.0 | 2.0 | 0.00 | 0.00 | 0.00 | 79 | 1019.4 |
| 20260509071600 | 52 | 132 | 0.0 | 0.0 | 0.00 | 0.00 | 0.00 | 79 | 1019.3 |
| 20260509071059 | 52 | 132 | 0.0 | 0.0 | 0.00 | 0.00 | 0.00 | 79 | 1019.2 |
| 20260509070601 | 52 | 132 | 0.0 | 0.0 | 0.00 | 0.00 | 0.00 | 79 | 1019.3 |
| 20260509070105 | 52 | 132 | 0.0 | 0.0 | 0.00 | 0.00 | 0.00 | 79 | 1019.3 |
| 20260509065557 | 52 | 132 | 0.0 | 0.0 | 0.00 | 0.00 | 0.00 | 79 | 1019.3 |
| 20260509065057 | 52 | 132 | 0.0 | 0.0 | 0.00 | 0.00 | 0.00 | 79 | 1019.3 |
| 20260509064557 | 52 | 132 | 0.0 | 1.0 | 0.00 | 0.00 | 0.00 | 79 | 1019.3 |
| 20260509064056 | 52 | 132 | 0.0 | 1.0 | 0.00 | 0.00 | 0.00 | 79 | 1019.3 |
| 20260509063556 | 52 | 132 | 0.0 | 1.0 | 0.00 | 0.00 | 0.00 | 78 | 1019.3 |
| 20260509063056 | 52 | 132 | 0.0 | 2.0 | 0.00 | 0.00 | 0.00 | 78 | 1019.3 |
| 20260509062557 | 52 | 132 | 0.0 | 2.0 | 0.00 | 0.00 | 0.00 | 78 | 1019.3 |
| 20260509062056 | 52 | 132 | 0.0 | 0.0 | 0.00 | 0.00 | 0.00 | 78 | 1019.4 |
| 20260509061614 | 52 | 132 | 0.0 | 0.0 | 0.00 | 0.00 | 0.00 | 78 | 1019.4 |
| 20260509061055 | 52 | 132 | 0.0 | 0.0 | 0.00 | 0.00 | 0.00 | 78 | 1019.3 |
| 20260509060555 | 52 | 132 | 0.0 | 0.0 | 0.00 | 0.00 | 0.00 | 77 | 1019.3 |
| 20260509060122 | 52 | 132 | 0.0 | 0.0 | 0.00 | 0.00 | 0.00 | 77 | 1019.4 |
| 20260509055554 | 52 | 132 | 0.0 | 0.0 | 0.00 | 0.00 | 0.00 | 77 | 1019.3 |
| 20260509055053 | 52 | 132 | 0.0 | 1.0 | 0.00 | 0.00 | 0.00 | 77 | 1019.3 |
| 20260509054600 | 52 | 132 | 0.0 | 1.0 | 0.00 | 0.00 | 0.00 | 77 | 1019.2 |
| 20260509054053 | 53 | 132 | 0.0 | 1.0 | 0.00 | 0.00 | 0.00 | 77 | 1019.2 |
| 20260509053553 | 53 | 132 | 0.0 | 1.0 | 0.00 | 0.00 | 0.00 | 77 | 1019.2 |
| 20260509053053 | 53 | 132 | 0.0 | 2.0 | 0.00 | 0.00 | 0.00 | 77 | 1019.2 |
| 20260509052551 | 53 | 132 | 0.0 | 2.0 | 0.00 | 0.00 | 0.00 | 77 | 1019.2 |
| 20260509052051 | 53 | 132 | 0.0 | 2.0 | 0.00 | 0.00 | 0.00 | 77 | 1019.2 |
| 20260509051553 | 53 | 132 | 0.0 | 2.0 | 0.00 | 0.00 | 0.00 | 77 | 1019.2 |
| 20260509051050 | 53 | 132 | 0.0 | 1.0 | 0.00 | 0.00 | 0.00 | 77 | 1019.1 |
| 20260509050550 | 53 | 132 | 0.0 | 1.0 | 0.00 | 0.00 | 0.00 | 77 | 1019.2 |
| 20260509050105 | 53 | 132 | 0.0 | 1.0 | 0.00 | 0.00 | 0.00 | 76 | 1019.2 |
| 20260509045549 | 53 | 132 | 0.0 | 1.0 | 0.00 | 0.00 | 0.00 | 76 | 1019.2 |
| 20260509045049 | 53 | 132 | 0.0 | 1.0 | 0.00 | 0.00 | 0.00 | 76 | 1019.1 |
| 20260509044559 | 53 | 132 | 0.0 | 1.0 | 0.00 | 0.00 | 0.00 | 75 | 1019.1 |
| 20260509044050 | 53 | 132 | 0.0 | 1.0 | 0.00 | 0.00 | 0.00 | 75 | 1019.1 |
| 20260509043550 | 53 | 132 | 0.0 | 1.0 | 0.00 | 0.00 | 0.00 | 74 | 1019.0 |
| 20260509043048 | 53 | 132 | 0.0 | 1.0 | 0.00 | 0.00 | 0.00 | 74 | 1019.0 |
| 20260509042547 | 53 | 132 | 0.0 | 1.0 | 0.00 | 0.00 | 0.00 | 74 | 1018.9 |
| 20260509042049 | 53 | 132 | 0.0 | 1.0 | 0.00 | 0.00 | 0.00 | 73 | 1018.8 |
| 20260509041546 | 54 | 132 | 0.0 | 3.0 | 0.00 | 0.00 | 0.00 | 72 | 1018.8 |
| 20260509041046 | 54 | 132 | 0.0 | 3.0 | 0.00 | 0.00 | 0.00 | 72 | 1018.8 |
| 20260509040509 | 54 | 125 | 0.0 | 2.0 | 0.00 | 0.00 | 0.00 | 72 | 1018.8 |
| 20260509040009 | 54 | 124 | 0.0 | 0.0 | 0.00 | 0.00 | 0.00 | 73 | 1018.7 |
| 20260509035510 | 54 | 124 | 0.0 | 1.0 | 0.00 | 0.00 | 0.00 | 73 | 1018.6 |
| 20260509035009 | 54 | 124 | 0.0 | 1.0 | 0.00 | 0.00 | 0.00 | 73 | 1018.5 |
| 20260509034515 | 54 | 124 | 0.0 | 2.0 | 0.00 | 0.00 | 0.00 | 72 | 1018.5 |
| 20260509034014 | 54 | 125 | 0.0 | 2.0 | 0.00 | 0.00 | 0.00 | 71 | 1018.4 |
| 20260509033514 | 54 | 125 | 0.0 | 2.0 | 0.00 | 0.00 | 0.00 | 71 | 1018.4 |
| 20260509033014 | 54 | 119 | 0.0 | 2.0 | 0.00 | 0.00 | 0.00 | 71 | 1018.4 |
| 20260509032513 | 54 | 119 | 0.0 | 1.0 | 0.00 | 0.00 | 0.00 | 71 | 1018.4 |
| 20260509032012 | 55 | 119 | 0.0 | 1.0 | 0.00 | 0.00 | 0.00 | 70 | 1018.3 |
| 20260509031520 | 55 | 119 | 0.0 | 1.0 | 0.00 | 0.00 | 0.00 | 71 | 1018.3 |
| 20260509031011 | 55 | 119 | 0.0 | 2.0 | 0.00 | 0.00 | 0.00 | 70 | 1018.2 |
| 20260509030511 | 55 | 119 | 0.0 | 2.0 | 0.00 | 0.00 | 0.00 | 70 | 1018.2 |
| 20260509030014 | 55 | 118 | 0.0 | 2.0 | 0.00 | 0.00 | 0.00 | 69 | 1018.2 |
| 20260509025510 | 55 | 111 | 0.0 | 3.0 | 0.00 | 0.00 | 0.00 | 69 | 1018.2 |
| 20260509025009 | 55 | 259 | 0.0 | 3.0 | 0.00 | 0.00 | 0.00 | 69 | 1018.2 |
| 20260509024511 | 55 | 332 | 0.0 | 2.0 | 0.00 | 0.00 | 0.00 | 70 | 1018.1 |
| 20260509024009 | 55 | 342 | 0.0 | 3.0 | 0.00 | 0.00 | 0.00 | 69 | 1018.1 |
| 20260509023509 | 55 | 348 | 0.0 | 3.0 | 0.00 | 0.00 | 0.00 | 69 | 1018.0 |
| 20260509023012 | 55 | 186 | 1.0 | 3.0 | 0.00 | 0.00 | 0.00 | 68 | 1017.9 |
| 20260509022505 | 55 | 144 | 1.0 | 3.0 | 0.00 | 0.00 | 0.00 | 68 | 1017.9 |
| 20260509022004 | 55 | 55 | 0.0 | 4.0 | 0.00 | 0.00 | 0.00 | 67 | 1017.9 |
| 20260509021502 | 56 | 52 | 1.0 | 4.0 | 0.00 | 0.00 | 0.00 | 67 | 1017.8 |
| 20260509021101 | 56 | 30 | 0.0 | 4.0 | 0.00 | 0.00 | 0.00 | 66 | 1017.8 |
| 20260509020558 | 56 | 77 | 0.0 | 3.0 | 0.00 | 0.00 | 0.00 | 66 | 1017.8 |
| 20260509020059 | 56 | 177 | 1.0 | 3.0 | 0.00 | 0.00 | 0.00 | 65 | 1017.8 |
| 20260509015556 | 56 | 196 | 0.0 | 6.0 | 0.00 | 0.00 | 0.00 | 65 | 1017.8 |
| 20260509015056 | 56 | 166 | 1.0 | 6.0 | 0.00 | 0.00 | 0.00 | 64 | 1017.8 |
| 20260509014557 | 57 | 130 | 0.0 | 4.0 | 0.00 | 0.00 | 0.00 | 65 | 1017.8 |
| 20260509014056 | 57 | 154 | 1.0 | 3.0 | 0.00 | 0.00 | 0.00 | 64 | 1017.8 |
| 20260509013553 | 57 | 36 | 0.0 | 3.0 | 0.00 | 0.00 | 0.00 | 67 | 1017.8 |
| 20260509013059 | 57 | 106 | 1.0 | 3.0 | 0.00 | 0.00 | 0.00 | 65 | 1017.9 |
| 20260509012550 | 56 | 34 | 0.0 | 4.0 | 0.00 | 0.00 | 0.00 | 67 | 1017.8 |
| 20260509012049 | 56 | 209 | 1.0 | 5.0 | 0.00 | 0.00 | 0.00 | 65 | 1017.7 |
| 20260509011549 | 56 | 58 | 1.0 | 5.0 | 0.00 | 0.00 | 0.00 | 65 | 1017.7 |
| 20260509011047 | 57 | 64 | 0.0 | 5.0 | 0.00 | 0.00 | 0.00 | 65 | 1017.6 |
| 20260509010650 | 57 | 182 | 1.0 | 5.0 | 0.00 | 0.00 | 0.00 | 65 | 1017.6 |
| 20260509010048 | 57 | 170 | 1.0 | 4.0 | 0.00 | 0.00 | 0.00 | 64 | 1017.7 |
| 20260509005547 | 57 | 81 | 1.0 | 5.0 | 0.00 | 0.00 | 0.00 | 64 | 1017.7 |
| 20260509005046 | 57 | 122 | 2.0 | 7.0 | 0.00 | 0.00 | 0.00 | 64 | 1017.7 |
| 20260509004548 | 57 | 146 | 1.0 | 7.0 | 0.00 | 0.00 | 0.00 | 64 | 1017.6 |
| 20260509004046 | 57 | 359 | 1.0 | 6.0 | 0.00 | 0.00 | 0.00 | 65 | 1017.6 |
| 20260509003546 | 57 | 135 | 2.0 | 6.0 | 0.00 | 0.00 | 0.00 | 64 | 1017.6 |
| 20260509003057 | 57 | 214 | 0.0 | 3.0 | 0.00 | 0.00 | 0.00 | 66 | 1017.6 |
| 20260509002545 | 56 | 152 | 1.0 | 3.0 | 0.00 | 0.00 | 0.00 | 66 | 1017.7 |
| 20260509002146 | 57 | 23 | 0.0 | 7.0 | 0.00 | 0.00 | 0.00 | 66 | 1017.7 |
| 20260509001544 | 57 | 22 | 1.0 | 7.0 | 0.00 | 0.00 | 0.00 | 66 | 1017.7 |
| 20260509001045 | 57 | 125 | 0.0 | 4.0 | 0.00 | 0.00 | 0.00 | 66 | 1017.7 |
| 20260509000643 | 57 | 77 | 1.0 | 4.0 | 0.00 | 0.00 | 0.00 | 66 | 1017.7 |
| 20260509000049 | 57 | 61 | 0.0 | 4.0 | 0.00 | 0.00 | 0.00 | 67 | 1017.7 |
| 20260508235544 | 56 | 182 | 1.0 | 4.0 | 0.00 | 0.00 | 0.00 | 66 | 1017.8 |
| 20260508235043 | 56 | 351 | 1.0 | 7.0 | 0.00 | 0.00 | 0.00 | 66 | 1017.7 |
| 20260508234542 | 56 | 157 | 2.0 | 7.0 | 0.00 | 0.00 | 0.00 | 66 | 1017.5 |
| 20260508234042 | 57 | 207 | 0.0 | 3.0 | 0.00 | 0.00 | 0.00 | 68 | 1017.5 |
| 20260508233542 | 56 | 159 | 1.0 | 6.0 | 0.00 | 0.00 | 0.00 | 68 | 1017.5 |
| 20260508233042 | 56 | 161 | 1.0 | 6.0 | 0.00 | 0.00 | 0.00 | 67 | 1017.4 |
| 20260508232541 | 56 | 85 | 1.0 | 6.0 | 0.00 | 0.00 | 0.00 | 68 | 1017.4 |
| 20260508232041 | 56 | 115 | 0.0 | 6.0 | 0.00 | 0.00 | 0.00 | 69 | 1017.5 |
| 20260508231540 | 56 | 96 | 0.0 | 4.0 | 0.00 | 0.00 | 0.00 | 71 | 1017.5 |
| 20260508231044 | 56 | 169 | 0.0 | 4.0 | 0.00 | 0.00 | 0.00 | 73 | 1017.5 |
| 20260508230642 | 56 | 169 | 0.0 | 4.0 | 0.00 | 0.00 | 0.00 | 71 | 1017.5 |
| 20260508230042 | 56 | 96 | 0.0 | 3.0 | 0.00 | 0.00 | 0.00 | 70 | 1017.5 |
| 20260508225539 | 56 | 186 | 0.0 | 4.0 | 0.00 | 0.00 | 0.00 | 70 | 1017.5 |
| 20260508225039 | 56 | 186 | 0.0 | 6.0 | 0.00 | 0.00 | 0.00 | 69 | 1017.4 |
| 20260508224538 | 56 | 128 | 1.0 | 6.0 | 0.00 | 0.00 | 0.00 | 69 | 1017.3 |
| 20260508224038 | 56 | 146 | 2.0 | 5.0 | 0.00 | 0.00 | 0.00 | 69 | 1017.3 |
| 20260508223538 | 55 | 348 | 1.0 | 7.0 | 0.00 | 0.00 | 0.00 | 71 | 1017.3 |
| 20260508223040 | 55 | 155 | 3.0 | 7.0 | 0.00 | 0.00 | 0.00 | 70 | 1017.3 |
| 20260508222538 | 55 | 322 | 0.0 | 6.0 | 0.00 | 0.00 | 0.00 | 72 | 1017.4 |
| 20260508222037 | 55 | 308 | 3.0 | 6.0 | 0.00 | 0.00 | 0.00 | 72 | 1017.4 |
| 20260508221537 | 54 | 151 | 1.0 | 4.0 | 0.00 | 0.00 | 0.00 | 73 | 1017.4 |
| 20260508221037 | 54 | 156 | 1.0 | 4.0 | 0.00 | 0.00 | 0.00 | 73 | 1017.4 |
| 20260508220636 | 54 | 67 | 0.0 | 3.0 | 0.00 | 0.00 | 0.00 | 73 | 1017.3 |
| 20260508220049 | 54 | 150 | 0.0 | 4.0 | 0.00 | 0.00 | 0.00 | 73 | 1017.4 |
| 20260508215549 | 54 | 150 | 1.0 | 4.0 | 0.00 | 0.00 | 0.00 | 73 | 1017.4 |
| 20260508215049 | 54 | 182 | 1.0 | 3.0 | 0.00 | 0.00 | 0.00 | 74 | 1017.3 |
| 20260508214549 | 54 | 138 | 0.0 | 4.0 | 0.00 | 0.00 | 0.00 | 73 | 1017.2 |
| 20260508214052 | 54 | 63 | 1.0 | 5.0 | 0.00 | 0.00 | 0.00 | 73 | 1017.2 |
| 20260508213549 | 54 | 116 | 1.0 | 4.0 | 0.00 | 0.00 | 0.00 | 73 | 1017.4 |
| 20260508213048 | 54 | 17 | 1.0 | 7.0 | 0.00 | 0.00 | 0.00 | 73 | 1017.3 |
| 20260508212548 | 54 | 101 | 1.0 | 7.0 | 0.00 | 0.00 | 0.00 | 74 | 1017.3 |
| 20260508212048 | 54 | 280 | 0.0 | 4.0 | 0.00 | 0.00 | 0.00 | 73 | 1017.3 |
| 20260508211547 | 54 | 137 | 1.0 | 4.0 | 0.00 | 0.00 | 0.00 | 73 | 1017.3 |
| 20260508211050 | 54 | 37 | 2.0 | 4.0 | 0.00 | 0.00 | 0.00 | 73 | 1017.2 |
| 20260508210519 | 54 | 188 | 1.0 | 4.0 | 0.00 | 0.00 | 0.00 | 73 | 1017.0 |
| 20260508210018 | 54 | 138 | 1.0 | 3.0 | 0.00 | 0.00 | 0.00 | 73 | 1017.0 |
| 20260508205518 | 54 | 17 | 0.0 | 3.0 | 0.00 | 0.00 | 0.00 | 74 | 1017.0 |
| 20260508205017 | 54 | 16 | 1.0 | 5.0 | 0.00 | 0.00 | 0.00 | 73 | 1016.9 |
| 20260508204517 | 54 | 153 | 1.0 | 5.0 | 0.00 | 0.00 | 0.00 | 73 | 1016.9 |
| 20260508204016 | 54 | 327 | 0.0 | 5.0 | 0.00 | 0.00 | 0.00 | 72 | 1016.9 |
| 20260508203515 | 54 | 157 | 1.0 | 5.0 | 0.00 | 0.00 | 0.00 | 72 | 1016.8 |
| 20260508203017 | 55 | 111 | 0.0 | 4.0 | 0.00 | 0.00 | 0.00 | 72 | 1016.7 |
| 20260508202515 | 54 | 247 | 0.0 | 4.0 | 0.00 | 0.00 | 0.00 | 72 | 1016.7 |
| 20260508202014 | 55 | 25 | 1.0 | 4.0 | 0.00 | 0.00 | 0.00 | 72 | 1016.6 |
| 20260508201519 | 55 | 160 | 1.0 | 4.0 | 0.00 | 0.00 | 0.00 | 72 | 1016.6 |
| 20260508201013 | 54 | 101 | 0.0 | 9.0 | 0.00 | 0.00 | 0.00 | 74 | 1016.5 |
| 20260508200513 | 53 | 141 | 0.0 | 9.0 | 0.00 | 0.00 | 0.00 | 74 | 1016.6 |
| 20260508200019 | 53 | 71 | 3.0 | 9.0 | 0.00 | 0.00 | 0.00 | 73 | 1016.5 |
| 20260508195510 | 53 | 160 | 2.0 | 6.0 | 0.00 | 0.00 | 0.00 | 75 | 1016.4 |
| 20260508195011 | 53 | 21 | 1.0 | 11.0 | 0.00 | 0.00 | 0.00 | 76 | 1016.5 |
| 20260508194511 | 53 | 14 | 0.0 | 11.0 | 0.00 | 0.00 | 0.00 | 76 | 1016.4 |
| 20260508194009 | 53 | 146 | 1.0 | 5.0 | 0.00 | 0.00 | 0.00 | 76 | 1016.4 |
| 20260508193509 | 53 | 4 | 2.0 | 5.0 | 0.00 | 0.00 | 0.00 | 76 | 1016.3 |
| 20260508193015 | 53 | 121 | 0.0 | 7.0 | 0.00 | 0.00 | 0.00 | 77 | 1016.2 |
| 20260508192512 | 53 | 48 | 2.0 | 9.0 | 0.00 | 0.00 | 0.00 | 77 | 1016.2 |
| 20260508192012 | 53 | 177 | 1.0 | 9.0 | 0.00 | 0.00 | 0.00 | 76 | 1016.1 |
| 20260508191510 | 54 | 136 | 2.0 | 6.0 | 0.00 | 0.00 | 0.00 | 76 | 1016.0 |
| 20260508191007 | 54 | 43 | 1.0 | 9.0 | 0.00 | 0.00 | 0.00 | 77 | 1016.0 |
| 20260508190505 | 54 | 149 | 2.0 | 9.0 | 0.00 | 0.00 | 0.00 | 77 | 1015.8 |
| 20260508190007 | 54 | 43 | 1.0 | 4.0 | 0.00 | 0.00 | 0.00 | 79 | 1015.8 |
| 20260508185503 | 54 | 111 | 0.0 | 9.0 | 0.00 | 0.00 | 0.00 | 79 | 1015.6 |
| 20260508185003 | 54 | 205 | 2.0 | 9.0 | 0.00 | 0.00 | 0.00 | 79 | 1015.6 |
| 20260508184506 | 54 | 157 | 1.0 | 5.0 | 0.00 | 0.00 | 0.00 | 78 | 1015.4 |
| 20260508184003 | 54 | 240 | 1.0 | 7.0 | 0.00 | 0.00 | 0.00 | 78 | 1015.3 |
| 20260508183503 | 54 | 117 | 1.0 | 9.0 | 0.00 | 0.00 | 0.00 | 78 | 1015.5 |
| 20260508183002 | 55 | 213 | 2.0 | 9.0 | 0.00 | 0.00 | 0.00 | 77 | 1015.5 |